Opa-locka, FL

6:36 AM EST on December 07, 2016 (GMT -0500)
Opa Locka

Weather History for KOPF - August, 2013

Change the Weather History Date:

Sunday, August 25, 2013

  Actual Average Record
Temperature  
Mean Temperature 86 °F -  
Max Temperature 90 °F 90 °F 96 °F (1972)
Min Temperature 81 °F 75 °F 69 °F (1948)
Cooling Degree Days 20    
Growing Degree Days 36 (Base 50)    
Moisture  
Dew Point 74 °F    
Average Humidity 71    
Maximum Humidity 88    
Minimum Humidity 57    
Precipitation  
Precipitation 0.00 in - - ()
Sea Level Pressure  
Sea Level Pressure 30.09 in    
Wind  
Wind Speed 5 mph (ENE)    
Max Wind Speed 15 mph    
Max Gust Speed 21 mph    
Visibility 10 miles    
Events Thunderstorm    
Averages and records for this station are not official NWS values.
T = Trace of Precipitation, MM = Missing Value Source: NWS Daily Summary

Daily Weather History Graph

Daily Weather History Graph

Search for Another Location

Airport or City:

Trip Planner

Search our weather history database for the weather conditions in past years. The results will help you decide how hot, cold, wet, or windy it might be!

Date:

Astronomy

Aug. 25, 2013 Rise Set
Actual Time 6:58 AM EDT 7:47 PM EDT
Civil Twilight 6:34 AM EDT 8:10 PM EDT
Nautical Twilight 6:07 AM EDT 8:38 PM EDT
Astronomical Twilight 5:38 AM EDT 9:07 PM EDT
Moon 10:54 PM EDT (8/25) 11:23 AM EDT (8/25)
Length of Visible Light 13h 36m
Length of Day
12h 48m
Waning Gibbous, 76% of the Moon is Illuminated
Aug 25
Waning Gibbous
Aug 28
Last Quarter
Sep 5
New
Sep 12
First Quarter
Sep 19
Full

Hourly Weather History & Observations

Time (EDT) Temp. Heat Index Dew Point Humidity Pressure Visibility Wind Dir Wind Speed Gust Speed Precip Events Conditions
12:18 AM 82.4 °F 88.2 °F 73.4 °F 74% 30.09 in 10.0 mi Calm Calm - N/A   Mostly Cloudy
12:26 AM 84.2 °F 90.9 °F 73.4 °F 70% 30.08 in 10.0 mi Calm Calm - N/A   Scattered Clouds
12:53 AM 82.0 °F 87.9 °F 73.9 °F 76% 30.07 in 10.0 mi East 3.5 mph - N/A   Clear
1:53 AM 82.9 °F 90.2 °F 75.0 °F 77% 30.06 in 10.0 mi SSE 4.6 mph - N/A   Clear
2:53 AM 82.9 °F 90.2 °F 75.0 °F 77% 30.04 in 10.0 mi SSE 4.6 mph - N/A   Clear
3:53 AM 82.9 °F 90.2 °F 75.0 °F 77% 30.04 in 10.0 mi ESE 3.5 mph - N/A   Clear
4:53 AM 82.0 °F 89.4 °F 75.9 °F 82% 30.05 in 10.0 mi North 3.5 mph - N/A   Clear
5:53 AM 81.0 °F 87.3 °F 75.9 °F 85% 30.07 in 10.0 mi North 3.5 mph - N/A   Clear
6:53 AM 81.0 °F 87.9 °F 77.0 °F 88% 30.10 in 10.0 mi North 5.8 mph - N/A   Partly Cloudy
7:53 AM 81.0 °F 87.3 °F 75.9 °F 85% 30.11 in 10.0 mi NNW 6.9 mph - N/A   Clear
8:53 AM 84.9 °F 93.3 °F 75.0 °F 72% 30.11 in 10.0 mi NNE 6.9 mph - N/A   Clear
9:53 AM 87.1 °F 96.3 °F 75.0 °F 67% 30.14 in 10.0 mi NNE 10.4 mph - N/A   Clear
10:53 AM 84.9 °F 92.1 °F 73.9 °F 69% 30.16 in 10.0 mi NE 15.0 mph 20.7 mph N/A   Partly Cloudy
11:53 AM 87.1 °F 94.5 °F 73.0 °F 63% 30.15 in 10.0 mi NNE 8.1 mph - N/A   Unknown
12:53 PM 88.0 °F 94.7 °F 72.0 °F 59% 30.13 in 10.0 mi NE 12.7 mph - N/A   Clear
1:53 PM 88.0 °F 94.7 °F 72.0 °F 59% 30.12 in 10.0 mi ENE 13.8 mph - N/A   Clear
2:53 PM 87.1 °F 93.6 °F 72.0 °F 61% 30.09 in 10.0 mi ENE 8.1 mph - N/A   Clear
3:53 PM 90.0 °F 97.9 °F 73.0 °F 57% 30.06 in 10.0 mi East 8.1 mph - N/A   Clear
4:53 PM 89.1 °F 97.0 °F 73.0 °F 59% 30.06 in 10.0 mi East 10.4 mph - N/A   Clear
5:53 PM 86.0 °F 93.0 °F 73.0 °F 65% 30.07 in 10.0 mi East 9.2 mph - N/A   Clear
6:53 PM 84.9 °F 92.1 °F 73.9 °F 69% 30.07 in 10.0 mi East 8.1 mph - N/A   Clear
7:53 PM 84.0 °F 91.2 °F 73.9 °F 72% 30.08 in 10.0 mi ENE 8.1 mph - N/A   Partly Cloudy
8:53 PM 84.0 °F 91.2 °F 73.9 °F 72% 30.10 in 10.0 mi ENE 5.8 mph - N/A   Partly Cloudy
9:53 PM 84.0 °F 91.2 °F 73.9 °F 72% 30.12 in 10.0 mi ENE 5.8 mph - N/A   Partly Cloudy
10:43 PM 84.2 °F 90.9 °F 73.4 °F 70% 30.12 in 10.0 mi NE 9.2 mph - N/A   Mostly Cloudy
10:53 PM 84.0 °F 90.2 °F 73.0 °F 69% 30.12 in 10.0 mi NE 8.1 mph - N/A   Mostly Cloudy
11:04 PM 84.2 °F 90.9 °F 73.4 °F 70% 30.12 in 10.0 mi NE 6.9 mph - N/A Thunderstorm Partly Cloudy
11:53 PM 84.0 °F 90.2 °F 73.0 °F 69% 30.13 in 10.0 mi ENE 5.8 mph - N/A   Clear